Hourly Weather Bandar Seri Begawan

Today, 13 August, Thursday

Time Temperature Precipitation Wind Pressure Humidity
00:00 +27°C° 0.2 mm 1 mps 756 mmHg 88%
01:00 +27°C° 0.2 mm 1 mps 756 mmHg 89%
02:00 +27°C° 0 mm 1 mps 756 mmHg 89%
03:00 +27°C° 0.6 mm 1 mps 756 mmHg 90%
04:00 +26°C° 0.6 mm 2 mps 756 mmHg 91%
05:00 +26°C° 0.6 mm 2 mps 755 mmHg 92%
06:00 +26°C° 0.7 mm 2 mps 756 mmHg 91%
07:00 +26°C° 0.7 mm 2 mps 756 mmHg 91%
08:00 +26°C° 0.7 mm 3 mps 756 mmHg 91%
09:00 +28°C° 0 mm 2 mps 756 mmHg 85%
10:00 +29°C° 0 mm 2 mps 756 mmHg 79%
11:00 +30°C° 0 mm 2 mps 756 mmHg 73%
12:00 +32°C° 0 mm 2 mps 756 mmHg 68%
13:00 +34°C° 0 mm 2 mps 755 mmHg 63%
14:00 +35°C° 0 mm 2 mps 754 mmHg 58%
15:00 +32°C° 0.5 mm 2 mps 754 mmHg 64%
16:00 +31°C° 0.5 mm 2 mps 754 mmHg 71%
17:00 +30°C° 0.5 mm 2 mps 753 mmHg 77%
18:00 +29°C° 0.2 mm 2 mps 754 mmHg 79%
19:00 +29°C° 0.2 mm 1 mps 754 mmHg 81%
20:00 +28°C° 0.2 mm 1 mps 755 mmHg 83%
21:00 +28°C° 0 mm 1 mps 755 mmHg 83%
22:00 +28°C° 0 mm 1 mps 756 mmHg 83%
23:00 +28°C° 0 mm 1 mps 756 mmHg 83%

Tomorrow, 14 August, Friday

Time Temperature Precipitation Wind Pressure Humidity
00:00 +27°C° 1.5 mm 1 mps 756 mmHg 87%
01:00 +27°C° 1.5 mm 2 mps 756 mmHg 90%
02:00 +26°C° 1.5 mm 2 mps 755 mmHg 93%
03:00 +26°C° 0.7 mm 2 mps 755 mmHg 93%
04:00 +26°C° 0.7 mm 2 mps 755 mmHg 93%
05:00 +26°C° 0.7 mm 2 mps 755 mmHg 93%
06:00 +26°C° 0.4 mm 2 mps 755 mmHg 92%
07:00 +27°C° 0.4 mm 2 mps 756 mmHg 92%
08:00 +27°C° 0.4 mm 2 mps 756 mmHg 92%
09:00 +29°C° 0.2 mm 1 mps 756 mmHg 81%
10:00 +31°C° 0.2 mm 1 mps 756 mmHg 71%
11:00 +31°C° 0.2 mm 0 mps 756 mmHg 60%
12:00 +32°C° 0.3 mm 1 mps 755 mmHg 66%
13:00 +31°C° 0.3 mm 2 mps 755 mmHg 71%
14:00 +31°C° 0.3 mm 2 mps 754 mmHg 76%
15:00 +30°C° 0.6 mm 2 mps 754 mmHg 79%
16:00 +29°C° 0.6 mm 2 mps 754 mmHg 81%
17:00 +29°C° 0.6 mm 2 mps 753 mmHg 84%
18:00 +28°C° 0.2 mm 1 mps 754 mmHg 85%
19:00 +28°C° 0.2 mm 1 mps 754 mmHg 85%
20:00 +26°C° 0.2 mm 0 mps 755 mmHg 86%
21:00 +25°C° 0 mm 0 mps 755 mmHg 86%
22:00 +27°C° 0 mm 1 mps 756 mmHg 87%
23:00 +27°C° 0 mm 1 mps 756 mmHg 88%

Day after tomorrow, 15 August, Saturday

Time Temperature Precipitation Wind Pressure Humidity
00:00 +27°C° 0.2 mm 1 mps 756 mmHg 88%
01:00 +27°C° 0.2 mm 1 mps 756 mmHg 89%
02:00 +27°C° 0.2 mm 1 mps 755 mmHg 89%
03:00 +26°C° 0.1 mm 1 mps 755 mmHg 89%
04:00 +26°C° 0.1 mm 1 mps 755 mmHg 90%
05:00 +26°C° 0.1 mm 1 mps 754 mmHg 90%
06:00 +27°C° 0 mm 1 mps 755 mmHg 88%
07:00 +27°C° 0 mm 1 mps 755 mmHg 87%
08:00 +28°C° 0 mm 2 mps 756 mmHg 85%
09:00 +30°C° 0 mm 1 mps 756 mmHg 75%
10:00 +32°C° 0 mm 1 mps 755 mmHg 65%
11:00 +34°C° 0 mm 1 mps 755 mmHg 56%
12:00 +34°C° 0 mm 1 mps 755 mmHg 55%
13:00 +35°C° 0 mm 2 mps 754 mmHg 54%
14:00 +36°C° 0 mm 2 mps 753 mmHg 53%
15:00 +34°C° 0.1 mm 2 mps 753 mmHg 59%
16:00 +32°C° 0.1 mm 2 mps 753 mmHg 65%
17:00 +31°C° 0.1 mm 2 mps 753 mmHg 71%
18:00 +30°C° 0 mm 1 mps 753 mmHg 74%
19:00 +29°C° 0 mm 1 mps 754 mmHg 77%
20:00 +28°C° 0 mm 1 mps 754 mmHg 80%
21:00 +28°C° 0.1 mm 1 mps 755 mmHg 81%
22:00 +28°C° 0.1 mm 1 mps 755 mmHg 82%
23:00 +28°C° 0.1 mm 1 mps 756 mmHg 84%

16 August, Sunday

Time Temperature Precipitation Wind Pressure Humidity
00:00 +25°C° 0.5 mm 0 mps 756 mmHg 85%
01:00 +25°C° 0.5 mm 0 mps 755 mmHg 87%
02:00 +25°C° 0.5 mm 0 mps 755 mmHg 89%
03:00 +26°C° 0.7 mm 1 mps 755 mmHg 91%
04:00 +26°C° 0.7 mm 1 mps 755 mmHg 92%
05:00 +26°C° 0.7 mm 1 mps 754 mmHg 94%
06:00 +26°C° 0.3 mm 1 mps 755 mmHg 92%
07:00 +27°C° 0.3 mm 2 mps 755 mmHg 91%
08:00 +27°C° 0.3 mm 2 mps 756 mmHg 89%
09:00 +29°C° 0.1 mm 2 mps 755 mmHg 80%
10:00 +31°C° 0.1 mm 2 mps 755 mmHg 71%
11:00 +33°C° 0.1 mm 1 mps 755 mmHg 62%
12:00 +34°C° 0.2 mm 2 mps 754 mmHg 63%
13:00 +34°C° 0.2 mm 3 mps 754 mmHg 63%
14:00 +34°C° 0.2 mm 3 mps 753 mmHg 64%
15:00 +33°C° 0.5 mm 3 mps 753 mmHg 68%
16:00 +31°C° 0.5 mm 3 mps 753 mmHg 73%
17:00 +30°C° 0.5 mm 3 mps 752 mmHg 78%
18:00 +29°C° 1.5 mm 2 mps 753 mmHg 82%
19:00 +28°C° 1.5 mm 2 mps 754 mmHg 86%
20:00 +27°C° 1.5 mm 1 mps 754 mmHg 90%
21:00 +27°C° 0.7 mm 1 mps 755 mmHg 91%
22:00 +27°C° 0.7 mm 1 mps 755 mmHg 91%
23:00 +25°C° 0.7 mm 0 mps 756 mmHg 91%

17 August, Monday

Time Temperature Precipitation Wind Pressure Humidity
00:00 +26°C° 0.4 mm 1 mps 755 mmHg 92%
01:00 +26°C° 0.4 mm 1 mps 755 mmHg 92%
02:00 +26°C° 0.4 mm 1 mps 755 mmHg 93%
03:00 +26°C° 1.7 mm 1 mps 754 mmHg 93%
04:00 +26°C° 1.7 mm 1 mps 754 mmHg 93%
05:00 +26°C° 1.7 mm 1 mps 754 mmHg 93%
06:00 +26°C° 1.8 mm 1 mps 755 mmHg 92%
07:00 +27°C° 1.8 mm 1 mps 755 mmHg 92%
08:00 +27°C° 1.8 mm 1 mps 756 mmHg 91%
09:00 +28°C° 1.3 mm 1 mps 756 mmHg 87%
10:00 +29°C° 1.3 mm 1 mps 756 mmHg 83%
11:00 +30°C° 1.3 mm 1 mps 756 mmHg 79%
12:00 +30°C° 1.6 mm 1 mps 755 mmHg 80%
13:00 +30°C° 1.6 mm 2 mps 754 mmHg 81%
14:00 +30°C° 1.6 mm 2 mps 754 mmHg 81%
15:00 +30°C° 1.4 mm 2 mps 754 mmHg 83%
16:00 +29°C° 1.4 mm 1 mps 754 mmHg 84%
17:00 +29°C° 1.4 mm 1 mps 753 mmHg 85%
18:00 +28°C° 0.4 mm 1 mps 754 mmHg 86%
19:00 +27°C° 0.4 mm 1 mps 754 mmHg 88%
20:00 +27°C° 0.4 mm 1 mps 755 mmHg 89%
21:00 +27°C° 0 mm 1 mps 755 mmHg 89%
22:00 +27°C° 0 mm 1 mps 756 mmHg 89%
23:00 +27°C° 0 mm 1 mps 756 mmHg 89%

18 August, Tuesday

Time Temperature Precipitation Wind Pressure Humidity
00:00 +26°C° 0.2 mm 1 mps 755 mmHg 90%
01:00 +26°C° 0.2 mm 1 mps 755 mmHg 91%
02:00 +26°C° 0.2 mm 1 mps 755 mmHg 91%
03:00 +26°C° 0.2 mm 1 mps 754 mmHg 91%
04:00 +26°C° 0.2 mm 1 mps 754 mmHg 91%
05:00 +26°C° 0.2 mm 2 mps 754 mmHg 91%
06:00 +27°C° 0 mm 1 mps 754 mmHg 89%
07:00 +27°C° 0 mm 1 mps 755 mmHg 87%
08:00 +28°C° 0 mm 1 mps 755 mmHg 85%
09:00 +29°C° 0 mm 1 mps 755 mmHg 77%
10:00 +31°C° 0 mm 1 mps 755 mmHg 68%
11:00 +33°C° 0 mm 1 mps 755 mmHg 59%
12:00 +32°C° 0.4 mm 1 mps 755 mmHg 63%
13:00 +32°C° 0.4 mm 2 mps 754 mmHg 68%
14:00 +32°C° 0.4 mm 2 mps 753 mmHg 72%
15:00 +31°C° 1 mm 2 mps 753 mmHg 76%
16:00 +30°C° 1 mm 2 mps 753 mmHg 81%
17:00 +29°C° 1 mm 1 mps 753 mmHg 85%
18:00 +28°C° 1.8 mm 2 mps 754 mmHg 88%
19:00 +27°C° 1.8 mm 2 mps 754 mmHg 90%
20:00 +26°C° 1.8 mm 2 mps 755 mmHg 93%
21:00 +25°C° 0.5 mm 2 mps 755 mmHg 93%
22:00 +25°C° 0.5 mm 3 mps 756 mmHg 93%
23:00 +25°C° 0.5 mm 3 mps 756 mmHg 93%
Show more